Showing default

BRO-5, 51061

Orbit data source: Space-Track

BRO-5, 51061 is a payload satellite owned by Unseen Labs (FR) in SSO that was launched on Thu, 13 Jan 2022 UTC via an FALCON 9 launch vehicle from the Air Force Eastern Test Range (AFETR). Payload-class satellites include a variety of spacecraft equipped with specific instruments for various scientific and technological missions. These include communications satellites like Starlink; space stations such as the ISS; scientific satellites like the Hubble; Earth observation satellites from companies like Planet Labs, Umbra, and HawkEye 360; GPS; miniature CubeSats for education and research; and military/defense satellites.

Loading next visibility...
Identifier
51061, 2022-002CF
Orbit
SSO
Country
Flag of FRFR
Related business
Manufacturer
GOMSpace
Mission
Operational Commercial Sigint
Bus & Motor
CUBESAT 6U, Unknown motor
Mass
10 kg wet, ~10 kg dry
Launch date (UTC)
2022-01-13 (5 years ago)
Launch vehicle
FALCON 9
Launch site
Air Force Eastern Test Range (AFETR)
Object type
Payload
Rocket body
Debris
Shape & HBR
Box, 0.2 m
Radar Cross Section
0.080 m², Medium (>0.1 m² and < 1m²)

Expand to show TLE details & history
Last TLE update: 10 hours ago

TLE from 10 hours ago
0 BRO-5
1 51061U 22002CF  26263.58288950  .00020945  00000-0  36471-3 0  9997
2 51061  97.2907 338.3122 0005304 347.6353  12.4768 15.50772247261023
Epoch: 2026-09-20T13:59Z
TLE epoch observation values (Epoch: 2026-09-20T13:59:21.652Z)
Latitude
-0.00005°
Longitude
128.997°
Altitude
414.087 km
Speed
7.664 km/s
True Right ascension
22h 33m 14s
True Declination
0° 00' 00"
Sunlit
Object was in full shadow at epoch
Visualization orbit readout
Latitude
Unknown
Longitude
Unknown
Altitude
Unknown
Speed
Unknown
Apparent Right ascension
Unknown
Apparent Declination
Unknown
Sunlit
N/A
Visualization observer readout
Local Sidereal Time
17:12:40
Azimuth
Unknown
Elevation
Unknown
Doppler factor
Unknown
Orbital elements
Apogee altitude
414.991 km
Perigee altitude
407.789 km
Semi-major axis
6,789.527 km
Eccentricity
0.00053
Inclination
97.2907°
RAAN
338.3122°
Arg. of periapsis
347.6353°
True anomaly
12.48994°
Mean anomaly
12.4768°
Eccentric anomaly
12.48337°
Mean motion
3.87957 °/min
Orbital period
92.79 mins
BSTAR
0.00036471
Loading maneuver chart data...
Computing Atmospheric mass density...

Documentation

Showing up to 5 results
|